Location: Unspecified
(51.5147°N, 7.4673°E)
Time: 09:15:19
(UTC+01:00)

Vanguard 1 Rocket - Pass Details

Date: 16 February 2026
Orbit: 653 x 4214 km, 34.3° (Epoch: 12 March)

Event Time Altitude Azimuth Distance (km) Brightness Sun altitude
Rises 17:41:14 0° 260° (W) 5,716 13.8 0.0°
Reaches altitude 10° 17:44:38 10° 254° (WSW) 5,115 13.5 -0.5°
Maximum altitude 17:59:30 42° 190° (S) 4,412 11.2 -2.7°
Drops below altitude 10° 18:21:44 10° 131° (SE) 7,410 11.7 -6.0°
Sets 18:28:06 0° 125° (SE) 8,409 11.9 -7.0°
